OpenBCM V2.0.2 (Linux)

Packet Radio Mailbox

IZ3LSV

[San Dona' di P. JN]

 Login: GUEST





  
LU9DCE > KEPS     30.12.17 18:46l 253 Lines 12522 Bytes #999 (0) @ LUNET
BID : 28351_LU9DCE
Read: GUEST
Subj: SAT TLE OF 30
Path: IZ3LSV<IQ2LB<IK1NHL<CX2SA<LU1PAA<LU4ECL<LU9DCE
Sent: 171230/1601Z @:LU9DCE.TOR.BA.ARG.SOAM #:28351 [TORTUGUITAS] FBB7.0.8-beta
From: LU9DCE@LU9DCE.TOR.BA.ARG.SOAM
To  : KEPS@LUNET


            __    _  _  ___  ____   ___  ____    ____  ____  ____
           (  )  / )( \/ _ \(    \ / __)(  __)  (  _ \(  _ \/ ___)
           / (_/\) \/ (\__  )) D (( (__  ) _)    ) _ ( ) _ (\___ \
           \____/\____/(___/(____/ \___)(____)  (____/(____/(____/
               ESTACION DE PACKET RADIO - BUENOS AIRES (GF05OM)
                   BOLETINES INFORMATIVOS PROGRAMADOS (BIP)
                    LU9DCE@GMX.COM - RF 147070 @ 1200 BAUD
                        https://lu9dce.wordpress.com/
                      telnet lu9dce.dynv6.net port 6300

+------------------------------------------------------------------------------+
OSCAR 7
1 07530U 74089B   17364.15390144 -.00000041  00000-0  22750-4 0  9997
2 07530 101.6620 329.1853 0011947 303.8348 123.1232 12.53630456973418
OSCAR 11 (UoSAT 2)
1 14781U 84021B   17363.71108287  .00000083  00000-0  16448-4 0  9998
2 14781  97.6724  41.9419 0007056 280.7407  79.3012 14.82969402819322
OSCAR 19 (LUSAT)
1 20442U 90005G   17363.87728298 -.00000014 +00000-0 +11194-4 0  9993
2 20442 098.5948 298.5580 0010753 292.6222 067.3824 14.32882672459589
KITSAT B
1 22825U 93061C   17364.17687738  .00000006  00000-0  20237-4 0  9990
2 22825  98.8404 332.4399 0009339 116.2653 243.9489 14.30017943265414
POSAT 1
1 22826U 93061D   17364.16282352  .00000003  00000-0  18866-4 0  9995
2 22826  98.8346 332.4843 0009930 107.4039 252.8229 14.30348411265598
RADIO ROSTO
1 23439U 94085A   17363.93271892 -.00000042 +00000-0 +23452-4 0  9995
2 23439 064.8162 262.5703 0162685 212.0619 223.7010 11.27566296947486
JAS 2
1 24278U 96046B   17363.60027208 -.00000023 +00000-0 +12578-4 0  9996
2 24278 098.5331 220.5662 0350114 190.7004 168.6547 13.53080576055052
TECHSAT 1B
1 25397U 98043D   17363.86229894 -.00000018 +00000-0 +11111-4 0  9997
2 25397 098.6326 302.2648 0002028 122.2251 237.9124 14.23636981011412
ISS (ZARYA)
1 25544U 98067A   17364.62447817  .00001475  00000-0  29408-4 0  9994
2 25544  51.6406 139.0446 0002664 315.8183 160.2829 15.54233502 92300
PCSAT
1 26931U 01043C   17363.94709656 -.00000054 +00000-0 +10930-4 0  9992
2 26931 067.0521 306.0965 0005220 273.2609 086.7895 14.30488936848279
SAUDISAT 1C
1 27607U 02058C   17363.89692220  .00000013  00000-0  22460-4 0  9997
2 27607  64.5549 247.4693 0044524  11.6267 348.5853 14.75407484807986
CUTE-1
1 27844U 03031E   17363.95789914 +.00000078 +00000-0 +54790-4 0  9998
2 27844 098.6884 010.1029 0010487 137.0812 223.1186 14.22085522752104
CUBESAT XI 4
1 27848U 03031J   17364.01109589  .00000059  00000-0  46941-4 0  9992
2 27848  98.6975  10.4933 0010245 146.1044 214.0790 14.21693575752029
MOZHAYETS 4
1 27939U 03042A   17364.53168036  .00000109  00000-0  27994-4 0  9997
2 27939  97.9649 143.2930 0012168 328.3423 105.0093 14.66644400762098
CUBESAT XI 5
1 28895U 05043F   17364.40409012  .00000152  00000-0  37966-4 0  9998
2 28895  97.8848 157.9408 0015720 240.7401 119.2231 14.63492304649188
CUTE-1.7+APD II
1 32785U 08021C   17364.53888238  .00000258  00000-0  33695-4 0  9997
2 32785  97.5544  19.7155 0011901 233.8584 126.1533 14.88037237524098
DELFI C3
1 32789U 08021G   17363.93195801 +.00000898 +00000-0 +66361-4 0  9997
2 32789 097.5357 057.8635 0013455 149.7183 210.4824 15.05632388526210
SEEDS
1 32791U 08021J   17363.62495589  .00000387  00000-0  45039-4 0  9994
2 32791  97.5477  23.7845 0012530 218.0871 141.9463 14.90431958524250
YUBELEINY
1 32953U 08025A   17364.42436411 -.00000003  00000-0 -90032-4 0  9996
2 32953  82.5037 117.6397 0019075 215.1580 144.8243 12.43080731435802
PRISM (HITOMI)
1 33493U 09002B   17364.49569304  .00000124  00000-0  16703-4 0  9992
2 33493  98.1449 254.9630 0015369 149.3167 210.8971 14.96015655485123
KKS-1 (KISEKI)
1 33499U 09002H   17364.50284632  .00000131  00000-0  27411-4 0  9994
2 33499  98.3452 175.8687 0010390 107.6720 252.5623 14.75279260480302
SWISSCUBE
1 35932U 09051B   17363.91612546 +.00000143 +00000-0 +43329-4 0  9994
2 35932 098.5206 146.2598 0007800 018.2851 341.8625 14.56105217438768
BEESAT
1 35933U 09051C   17363.88704065  .00000122  00000-0  38604-4 0  9996
2 35933  98.5246 147.6678 0006299  33.4396 326.7197 14.56214669438905
ITUPSAT 1
1 35935U 09051E   17363.91528140 +.00000111 +00000-0 +36519-4 0  9991
2 35935 098.5358 147.9512 0008478 025.2497 334.9112 14.55398627438671
XIWANG-1 (HOPE-1)
1 36122U 09072B   17364.12935525 -.00000042  00000-0 -64439-6 0  9995
2 36122 100.0861  21.6089 0007939 139.4999 220.6707 13.16342816386400
TISAT 1
1 36799U 10035E   17363.90098524 +.00000526 +00000-0 +59661-4 0  9994
2 36799 098.0836 130.9118 0013242 048.9561 311.2799 14.90653747404734
JUGNU
1 37839U 11058B   17364.24771734  .00000304  00000-0  19932-4 0  9996
2 37839  19.9628 341.6576 0019003 183.9333 294.0424 14.12605374321455
SRMSAT
1 37841U 11058D   17364.45338133  .00000288  00000-0  13092-4 0  9996
2 37841  19.9733  26.1318 0012062  77.4452  61.5304 14.10595191321021
M-CUBED/EXP-1 PRIME
1 37855U 11061F   17364.51885230  .00001000  00000-0  59610-4 0  9996
2 37855 101.7205 335.7679 0177881 221.1759 137.5919 15.03952670336291
HORYU 2
1 38340U 12025D   17363.60861220  .00000249  00000-0  44645-4 0  9995
2 38340  98.3752  14.4276 0012257  35.7777 324.4250 14.75474988302104
STRAND 1
1 39090U 13009E   17364.16462206  .00000054  00000-0  34215-4 0  9990
2 39090  98.5344 207.5854 0010292  80.2126 280.0221 14.35004209253586
BEESAT 3
1 39134U 13015E   17364.18732956  .00001381  00000-0  75372-4 0  9993
2 39134  64.8645 313.3874 0029591 232.6948 127.1481 15.18674391259234
SOMP
1 39135U 13015F   17363.67338028 +.00001370 +00000-0 +79848-4 0  9999
2 39135 064.8697 326.2451 0030638 256.4538 103.3174 15.16278253258553
BEESAT 2
1 39136U 13015G   17363.91442004 +.00001324 +00000-0 +78563-4 0  9999
2 39136 064.8704 327.8075 0032245 254.9699 104.7857 15.15767125258541
CUBEBUG 1
1 39153U 13018D   17364.19290764  .00000228  00000-0  36799-4 0  9993
2 39153  97.9831  95.4402 0018111 131.2419 229.0357 14.80316149252595
ZACUBE
1 39417U 13066B   17363.65090782  .00000253  00000-0  38479-4 0  9992
2 39417  97.6070  36.1690 0058898 351.8351   8.1898 14.80850544221709
TRITON 1
1 39427U 13066M   17363.94546406 +.00000245 +00000-0 +46747-4 0  9992
2 39427 097.6362 006.1635 0115595 081.7447 279.6848 14.67588854219561
GOMX 1
1 39430U 13066Q   17364.53013038  .00000216  00000-0  47815-4 0  9997
2 39430  97.6795 348.7485 0152500 142.5865 218.6072 14.58997143218566
HUMSAT D
1 39433U 13066T   17363.94290793 +.00000313 +00000-0 +36464-4 0  9995
2 39433 097.6288 061.0388 0029592 286.6437 073.1533 14.91702970222012
50 SAT
1 39436U 13066W   17364.53917640  .00048389  00000-0  74904-3 0  9996
2 39436  97.7121 122.1686 0005619  89.7793 270.4104 15.53897447226948
CUBEBUG 2
1 39440U 13066AA  17364.49973919  .00000274  00000-0  45184-4 0  9997
2 39440  97.6121  24.6728 0081143  24.2878 336.2123 14.75588703221042
FUNCUBE 1
1 39444U 13066AE  17364.13998430  .00000310  00000-0  44848-4 0  9994
2 39444  97.6083  37.9410 0057896 346.2162  13.7468 14.81611880220621
UWE-3
1 39446U 13066AG  17364.13434301  .00000255  00000-0  40764-4 0  9999
2 39446  97.6083  30.1342 0070438   8.2316 352.0033 14.78121574220141
SPROUT
1 39770U 14029E   17364.52877117  .00000960  00000-0  11438-3 0  9996
2 39770  97.8755 102.0703 0010219  49.3290 310.8832 14.86610107195309
UNISAT 6
1 40012U 14033C   17364.56610818  .00000212  00000-0  39177-4 0  9990
2 40012  97.8307 241.8336 0059175  23.4984 336.8908 14.73743681189860
DUCHIFAT 1
1 40021U 14033M   17363.71935309  .00000552  00000-0  62895-4 0  9991
2 40021  97.9171 277.1342 0013644  22.6265 337.5551 14.90153341191719
QB50P1
1 40025U 14033R   17364.30178031  .00000343  00000-0  42845-4 0  9993
2 40025  97.9090 275.0132 0013182  26.2794 333.9089 14.88606260191661
CHUBUSAT 1
1 40300U 14070C   17364.12467567  .00001117  00000-0  52705-4 0  9991
2 40300  97.3809  80.3237 0021632 131.6799 290.1623 15.21320303174575
NUDT-PHONESAT
1 40900U 15049B   17364.22460118  .00002309  00000-0  10836-3 0  9992
2 40900  97.4422   9.5110 0012036 259.5272 100.4607 15.20597951126239
ZDPS 2A
1 40901U 15049C   17364.53818853  .00001044  00000-0  56538-4 0  9995
2 40901  97.4584   8.5664 0012189 263.4623  96.5223 15.16771106126099
ZDPS 2B
1 40902U 15049D   17364.22594460  .00000907  00000-0  49800-4 0  9998
2 40902  97.4469   6.5699 0012280 261.4265  98.5577 15.16582469126030
XW-2A
1 40903U 15049E   17364.51331668  .00002102  00000-0  55027-4 0  9997
2 40903  97.4040  32.5702 0012728 280.0164  79.9645 15.39834180127846
KAITUO 1A
1 40904U 15049F   17364.46034959  .00000580  00000-0  34717-4 0  9996
2 40904  97.4569   6.2490 0013191 263.6047 253.9816 15.14830253125951
OBJECT G
1 40905U 15049G   17364.53673557  .00000476  00000-0  29912-4 0  9993
2 40905  97.4547   4.6878 0014321 252.7714 107.1951 15.13815419125907
XW-2C
1 40906U 15049H   17364.50636132  .00000760  00000-0  44205-4 0  9997
2 40906  97.4573   6.1499 0013562 252.9474 107.0273 15.14952419125958
XW-2D
1 40907U 15049J   17364.54066965  .00000826  00000-0  47600-4 0  9998
2 40907  97.4545   5.9043 0012930 250.5550 109.4286 15.15085472125965
LILACSAT 2
1 40908U 15049K   17364.21748582  .00000443  00000-0  28416-4 0  9994
2 40908  97.4651   5.1562 0014532 252.0351 107.9296 15.13368395125812
XW-2F
1 40910U 15049M   17364.54934883  .00001200  00000-0  65526-4 0  9999
2 40910  97.4556   6.9257 0013717 246.9199 113.0588 15.16161752125896
XW-2B
1 40911U 15049N   17364.55231117  .00000789  00000-0  45679-4 0  9999
2 40911  97.4584   6.3854 0012837 251.0121 108.9720 15.15036159125868
